Weather History for Houston / Dunn Helistop, TX

Change the Weather History Date:

Friday, January 17, 2014

  Actual Average (KHOU) Record (KHOU)
Temperature  
Mean Temperature 56 °F 53 °F  
Max Temperature 62 °F 63 °F 80 °F (1974)
Min Temperature 50 °F 43 °F 15 °F (1930)
Degree Days  
Heating Degree Days 9 13  
Month to date heating degree days 221  
Since 1 July heating degree days 760  
Growing Degree Days 6 (Base 50)    
Moisture  
Dew Point 19 °F    
Average Humidity 25    
Maximum Humidity 48    
Minimum Humidity 14    
Precipitation  
Precipitation 0.00 in 0.11 in 2.39 in (1963)
Month to date precipitation 1.80  
Year to date precipitation 1.80  
Sea Level Pressure  
Sea Level Pressure 30.23 in    
Wind  
Wind Speed 6 mph (NNW)    
Max Wind Speed 17 mph    
Max Gust Speed 22 mph    
Visibility 10 miles    
Events      
T = Trace of Precipitation, MM = Missing Value Source: NWS Daily Summary

Daily Weather History Graph

Daily Weather History Graph

Search for Another Location

Airport:

Trip Planner

Search our weather history database for the weather conditions in past years. The results will help you decide how hot, cold, wet, or windy it might be!

Date:

Astronomy

Jan. 17, 2014 Rise Set
Actual Time 7:17 AM CST 5:46 PM CST
Civil Twilight 6:51 AM CST 6:12 PM CST
Nautical Twilight 6:22 AM CST 6:41 PM CST
Astronomical Twilight 5:53 AM CST 7:09 PM CST
Moon 7:22 PM CST (1/17) 7:55 AM CST (1/17)
Length of Visible Light 11h 20m
Length of Day
10h 29m
Full, 98% of the Moon is Illuminated
Jan 17
Full
Jan 23
Last Quarter
Jan 30
New
Feb 6
First Quarter
Feb 14
Full

Hourly Weather History & Observations

Time (CST) Temp. Dew Point Humidity Pressure Visibility Wind Dir Wind Speed Gust Speed Precip Events Conditions
12:15 AM 59.0 °F 39.2 °F 48% 30.14 in 10.0 mi NNW 10.4 mph - N/A   Clear
12:35 AM 59.0 °F 39.2 °F 48% 30.14 in 10.0 mi Calm Calm - N/A   Clear
12:55 AM 57.2 °F 37.4 °F 48% 30.14 in 10.0 mi Calm Calm - N/A   Clear
1:15 AM 57.2 °F 35.6 °F 44% 30.14 in 10.0 mi Calm Calm - N/A   Clear
1:35 AM 57.2 °F 35.6 °F 44% 30.14 in 9.0 mi Calm Calm - N/A   Clear
1:55 AM 57.2 °F 35.6 °F 44% 30.14 in 10.0 mi Calm Calm - N/A   Clear
2:15 AM 55.4 °F 35.6 °F 47% 30.14 in 10.0 mi Calm Calm - N/A   Clear
2:35 AM 55.4 °F 35.6 °F 47% 30.14 in 10.0 mi Calm Calm - N/A   Clear
2:55 AM 55.4 °F 33.8 °F 44% 30.14 in 10.0 mi Calm Calm - N/A   Clear
3:15 AM 55.4 °F 35.6 °F 47% 30.14 in 10.0 mi NNW 3.5 mph - N/A   Clear
3:35 AM 53.6 °F 33.8 °F 47% 30.14 in 10.0 mi NNW 15.0 mph - N/A   Clear
3:55 AM 53.6 °F 32.0 °F 44% 30.15 in 10.0 mi NNW 15.0 mph 20.7 mph N/A   Clear
4:35 AM 55.4 °F 26.6 °F 33% 30.16 in 10.0 mi NNW 13.8 mph 20.7 mph N/A   Clear
4:55 AM 55.4 °F 23.0 °F 29% 30.17 in 10.0 mi NNW 13.8 mph 18.4 mph N/A   Clear
5:15 AM 53.6 °F 23.0 °F 30% 30.17 in 10.0 mi NNW 15.0 mph 18.4 mph N/A   Clear
5:35 AM 53.6 °F 23.0 °F 30% 30.18 in 10.0 mi NNW 13.8 mph 19.6 mph N/A   Clear
5:55 AM 51.8 °F 19.4 °F 28% 30.19 in 10.0 mi North 10.4 mph 18.4 mph N/A   Clear
6:15 AM 51.8 °F 19.4 °F 28% 30.19 in 10.0 mi North 9.2 mph - N/A   Clear
6:35 AM 50.0 °F 17.6 °F 28% 30.20 in 10.0 mi North 12.7 mph 18.4 mph N/A   Clear
6:55 AM 50.0 °F 15.8 °F 26% 30.21 in 10.0 mi North 12.7 mph 17.3 mph N/A   Clear
7:15 AM 50.0 °F 15.8 °F 26% 30.22 in 10.0 mi North 10.4 mph 17.3 mph N/A   Clear
7:35 AM 50.0 °F 14.0 °F 24% 30.23 in 9.0 mi North 3.5 mph - N/A   Clear
7:55 AM 50.0 °F 14.0 °F 24% 30.24 in 9.0 mi Calm Calm - N/A   Clear
8:15 AM 50.0 °F 15.8 °F 26% 30.25 in 10.0 mi NNW 10.4 mph - N/A   Clear
8:35 AM 50.0 °F 15.8 °F 26% 30.26 in 10.0 mi North 12.7 mph 18.4 mph N/A   Clear
8:55 AM 53.6 °F 14.0 °F 21% 30.27 in 9.0 mi North 15.0 mph 21.9 mph N/A   Clear
9:15 AM 53.6 °F 14.0 °F 21% 30.28 in 8.0 mi North 6.9 mph 20.7 mph N/A   Clear
9:35 AM 55.4 °F 14.0 °F 20% 30.29 in 8.0 mi North 9.2 mph - N/A   Clear
9:55 AM 55.4 °F 12.2 °F 18% 30.29 in 9.0 mi North 10.4 mph - N/A   Clear
10:15 AM 57.2 °F 14.0 °F 18% 30.30 in 9.0 mi North 5.8 mph - N/A   Clear
10:35 AM 57.2 °F 10.4 °F 16% 30.30 in 8.0 mi North 9.2 mph 17.3 mph N/A   Clear
10:55 AM 59.0 °F 10.4 °F 15% 30.30 in 8.0 mi North 17.3 mph 20.7 mph N/A   Clear
11:15 AM 59.0 °F 12.2 °F 16% 30.29 in 10.0 mi North 12.7 mph 19.6 mph N/A   Clear
11:35 AM 59.0 °F 12.2 °F 16% 30.28 in 10.0 mi North 16.1 mph 20.7 mph N/A   Clear
11:55 AM 59.0 °F 10.4 °F 15% 30.27 in 10.0 mi North 9.2 mph 17.3 mph N/A   Clear
12:35 PM 60.8 °F 14.0 °F 16% 30.25 in 10.0 mi North 10.4 mph 17.3 mph N/A   Clear
12:55 PM 62.6 °F 14.0 °F 15% 30.24 in 10.0 mi NNW 5.8 mph - N/A   Clear
1:15 PM 60.8 °F 12.2 °F 15% 30.24 in 10.0 mi NNW 9.2 mph 21.9 mph N/A   Clear
1:35 PM 60.8 °F 14.0 °F 16% 30.23 in 10.0 mi NNW 11.5 mph 17.3 mph N/A   Clear
1:55 PM 62.6 °F 14.0 °F 15% 30.23 in 10.0 mi NW 3.5 mph - N/A   Clear
2:15 PM 62.6 °F 12.2 °F 14% 30.23 in 10.0 mi NNW 13.8 mph 20.7 mph N/A   Clear
2:35 PM 62.6 °F 14.0 °F 15% 30.23 in 10.0 mi NNW 8.1 mph 18.4 mph N/A   Clear
2:55 PM 62.6 °F 12.2 °F 14% 30.22 in 10.0 mi North 4.6 mph 16.1 mph N/A   Clear
3:15 PM 62.6 °F 14.0 °F 15% 30.23 in 10.0 mi NNW 4.6 mph 16.1 mph N/A   Clear
3:35 PM 62.6 °F 14.0 °F 15% 30.22 in 10.0 mi Calm Calm - N/A   Clear
3:55 PM 62.6 °F 14.0 °F 15% 30.23 in 10.0 mi North 11.5 mph 18.4 mph N/A   Clear
4:15 PM 62.6 °F 14.0 °F 15% 30.23 in 10.0 mi NNW 5.8 mph - N/A   Clear
4:35 PM 60.8 °F 15.8 °F 17% 30.23 in 10.0 mi Calm Calm - N/A   Clear
4:55 PM 59.0 °F 15.8 °F 19% 30.24 in 10.0 mi Calm Calm - N/A   Clear
5:15 PM 59.0 °F 15.8 °F 19% 30.24 in 10.0 mi Calm Calm - N/A   Clear
5:35 PM 57.2 °F 15.8 °F 20% 30.24 in 10.0 mi Calm Calm - N/A   Clear
5:55 PM 57.2 °F 15.8 °F 20% 30.24 in 10.0 mi Calm Calm - N/A   Clear
6:15 PM 57.2 °F 14.0 °F 18% 30.24 in 10.0 mi Calm Calm - N/A   Clear
6:35 PM 55.4 °F 15.8 °F 21% 30.25 in 9.0 mi Calm Calm - N/A   Clear
6:55 PM 55.4 °F 14.0 °F 20% 30.25 in 9.0 mi Calm Calm - N/A   Clear
7:15 PM 55.4 °F 15.8 °F 21% 30.25 in 10.0 mi Calm Calm - N/A   Clear
7:35 PM 55.4 °F 15.8 °F 21% 30.25 in 10.0 mi Calm Calm - N/A   Clear
7:55 PM 55.4 °F 15.8 °F 21% 30.26 in 10.0 mi Calm Calm - N/A   Clear
8:15 PM 53.6 °F 15.8 °F 22% 30.26 in 10.0 mi Calm Calm - N/A   Clear
8:35 PM 53.6 °F 15.8 °F 22% 30.27 in 9.0 mi Calm Calm - N/A   Clear
8:55 PM 53.6 °F 14.0 °F 21% 30.27 in 10.0 mi Calm Calm - N/A   Clear
9:15 PM 53.6 °F 14.0 °F 21% 30.27 in 10.0 mi Calm Calm - N/A   Clear
9:35 PM 51.8 °F 14.0 °F 22% 30.27 in 9.0 mi Calm Calm - N/A   Clear
9:55 PM 51.8 °F 15.8 °F 24% 30.26 in 9.0 mi Calm Calm - N/A   Clear
10:15 PM 50.0 °F 15.8 °F 26% 30.26 in 9.0 mi Calm Calm - N/A   Clear
10:35 PM 50.0 °F 15.8 °F 26% 30.26 in 10.0 mi Calm Calm - N/A   Clear
10:55 PM 50.0 °F 15.8 °F 26% 30.26 in 10.0 mi Calm Calm - N/A   Clear
11:15 PM 50.0 °F 17.6 °F 28% 30.26 in 10.0 mi Calm Calm - N/A   Clear
11:35 PM 50.0 °F 14.0 °F 24% 30.25 in 10.0 mi Calm Calm - N/A   Clear
11:55 PM 50.0 °F 17.6 °F 28% 30.25 in 7.0 mi Calm Calm - N/A   Clear